Dalhart, TX

5:44 PM CDT on September 19, 2017 (GMT -0500)
Dalhart Municipal

Weather History for KDHT - March, 2012

Change the Weather History Date:

Friday, March 2, 2012

  Actual Average Record
Temperature  
Mean Temperature 35 °F 42 °F  
Max Temperature 44 °F 57 °F 82 °F (2016)
Min Temperature 25 °F 26 °F 4 °F (1960)
Degree Days  
Heating Degree Days 30 24  
Month to date heating degree days 43 48  
Since 1 July heating degree days 3474 3691  
Cooling Degree Days 0 0  
Month to date cooling degree days 0 0  
Year to date cooling degree days 0 0  
Moisture  
Dew Point 18 °F    
Average Humidity 53    
Maximum Humidity 78    
Minimum Humidity 27    
Precipitation  
Precipitation 0.00 in 0.03 in 0.98 in (2000)
Month to date precipitation 0.00 0.05  
Year to date precipitation 0.07 0.97  
Snow  
Snow 0.00 in 0.10 in 2.30 in (1969)
Month to date snowfall 0.0 0.2  
Since 1 July snowfall 8.3 13.7  
Snow Depth 0.00 in    
Sea Level Pressure  
Sea Level Pressure 29.89 in    
Wind  
Wind Speed 10 mph (North)    
Max Wind Speed 22 mph    
Max Gust Speed 26 mph    
Visibility 10 miles    
Events      
T = Trace of Precipitation, MM = Missing Value Source: NWS Daily Summary

Daily Weather History Graph

Daily Weather History Graph

Search for Another Location

Airport or City:

Trip Planner

Search our weather history database for the weather conditions in past years. The results will help you decide how hot, cold, wet, or windy it might be!

Date:

Astronomy

Mar. 02, 2012 Rise Set
Actual Time 7:18 AM CST 6:46 PM CST
Civil Twilight 6:52 AM CST 7:12 PM CST
Nautical Twilight 6:22 AM CST 7:42 PM CST
Astronomical Twilight 5:53 AM CST 8:11 PM CST
Moon 1:09 PM CST (3/2) 3:01 AM CST (3/2)
Length of Visible Light 12h 19m
Length of Day
11h 28m
Waxing Gibbous, 66% of the Moon is Illuminated
Mar 2
Waxing Gibbous
Mar 8
Full
Mar 14
Last Quarter
Mar 22
New
Mar 30
First Quarter

Hourly Weather History & Observations

Time (CST) Temp. Windchill Dew Point Humidity Pressure Visibility Wind Dir Wind Speed Gust Speed Precip Events Conditions
12:53 AM 37.9 °F 28.2 °F 12.0 °F 35% 29.67 in 10.0 mi North 18.4 mph - N/A   Mostly Cloudy
1:53 AM 37.0 °F 28.5 °F 12.0 °F 36% 29.69 in 10.0 mi North 13.8 mph - N/A   Overcast
2:53 AM 34.0 °F 23.8 °F 23.0 °F 64% 29.73 in 10.0 mi North 16.1 mph 23.0 mph N/A   Clear
3:53 AM 32.0 °F 24.2 °F 24.1 °F 73% 29.74 in 10.0 mi North 9.2 mph - N/A   Clear
4:53 AM 30.0 °F 23.2 °F 23.0 °F 75% 29.75 in 10.0 mi North 6.9 mph - N/A   Clear
5:53 AM 28.9 °F 21.1 °F 21.9 °F 75% 29.78 in 10.0 mi North 8.1 mph - N/A   Clear
6:53 AM 28.0 °F 20.8 °F 21.9 °F 78% 29.81 in 10.0 mi North 6.9 mph - N/A   Scattered Clouds
7:03 AM 28.4 °F 21.2 °F 23.0 °F 80% 29.84 in 10.0 mi North 6.9 mph - N/A   Mostly Cloudy
7:14 AM 28.4 °F 21.2 °F 23.0 °F 80% 29.84 in 10.0 mi North 6.9 mph - N/A   Scattered Clouds
7:24 AM 28.4 °F 22.2 °F 23.0 °F 80% 29.84 in 10.0 mi NNE 5.8 mph - N/A   Partly Cloudy
7:53 AM 28.9 °F 21.9 °F 23.0 °F 78% 29.83 in 10.0 mi North 6.9 mph - N/A   Mostly Cloudy
8:53 AM 33.1 °F 27.7 °F 26.1 °F 75% 29.86 in 10.0 mi North 5.8 mph - N/A   Clear
9:53 AM 37.9 °F 30.5 °F 21.9 °F 53% 29.87 in 10.0 mi NNE 11.5 mph - N/A   Overcast
10:53 AM 41.0 °F 34.3 °F 17.1 °F 38% 29.86 in 10.0 mi NE 11.5 mph - N/A   Mostly Cloudy
11:53 AM 43.0 °F 36.8 °F 15.1 °F 32% 29.88 in 10.0 mi NE 11.5 mph - N/A   Overcast
12:53 PM 43.0 °F 36.8 °F 10.0 °F 26% 29.88 in 10.0 mi ENE 11.5 mph 19.6 mph N/A   Overcast
1:53 PM 42.1 °F 34.9 °F 17.1 °F 37% 29.89 in 10.0 mi NNE 13.8 mph 20.7 mph N/A   Overcast
2:53 PM 41.0 °F 31.9 °F 17.1 °F 38% 29.92 in 10.0 mi North 19.6 mph - N/A   Overcast
3:53 PM 42.1 °F 34.2 °F 19.0 °F 40% 29.94 in 10.0 mi NNE 16.1 mph 23.0 mph N/A   Overcast
4:53 PM 39.0 °F 32.3 °F 19.9 °F 46% 29.98 in 10.0 mi NNE 10.4 mph 18.4 mph N/A   Overcast
5:53 PM 39.9 °F 32.9 °F 18.0 °F 41% 29.99 in 10.0 mi North 11.5 mph - N/A   Overcast
6:53 PM 37.9 °F 32.7 °F 12.0 °F 35% 30.01 in 10.0 mi North 6.9 mph - N/A   Mostly Cloudy
7:53 PM 36.0 °F 30.3 °F 9.0 °F 33% 30.03 in 10.0 mi North 6.9 mph - N/A   Clear
8:53 PM 32.0 °F 27.5 °F 10.9 °F 42% 30.05 in 10.0 mi NW 4.6 mph - N/A   Clear
9:53 PM 28.0 °F 20.8 °F 12.9 °F 53% 30.08 in 10.0 mi NW 6.9 mph - N/A   Clear
10:53 PM 26.1 °F 17.6 °F 16.0 °F 66% 30.09 in 10.0 mi NW 8.1 mph - N/A   Clear
11:53 PM 28.9 °F 21.1 °F 18.0 °F 64% 30.09 in 10.0 mi NW 8.1 mph - N/A   Overcast